#timestamp,LO_Frequency,Hit 
1500786015.3,286047003.0,N
1500786035.1,286047003.6,N
1500786055.9,286047005.5,N
1500786075.7,286047007.4,N
1500786095.5,286047007.5,N
1500786115.4,286047006.7,N
1500786135.2,286047006.0,N
1500786155.0,286047005.7,N
1500786155.9,286047005.7,N
1500786175.8,286047002.9,N
1500786195.6,286047002.9,N
1500786215.5,286047004.9,N
1500786235.3,286047005.4,N
1500786255.1,286047006.2,N
1500786275.9,286047002.9,N
1500786295.7,286047005.2,N
1500786315.5,286047007.2,N
1500786335.4,286047002.9,N
1500786355.2,286047005.5,N
1500786375.1,286047003.1,N
1500786376.0,286047003.1,N
1500786395.8,286047005.9,N
1500786415.6,286047003.3,N
1500786435.5,286047005.3,N
1500786455.3,286047007.6,N
1500786475.2,286047005.0,N
1500786495.9,286047004.7,N
1500786515.7,286047006.1,N
1500786535.6,286047006.3,N
1500786555.4,286047007.1,N
1500786575.2,286047006.4,N
1500786595.1,286047007.6,N
1500786596.0,286047007.6,N
1500786615.8,286047008.8,N
1500786635.7,286047009.8,N
1500786655.5,286047009.7,N
1500786675.3,286047009.1,N
1500786695.2,286047008.9,N
1500786715.0,286047009.1,N
1500786715.9,286047009.1,N
1500786735.8,286047006.2,N
1500786755.6,286047006.9,N
1500786775.4,286047004.9,N
1500786795.3,286047004.5,N
1500786815.1,286047006.1,N
1500786835.9,286047008.8,N
1500786855.7,286047006.3,N
1500786875.5,286047004.8,N
1500786895.4,286047007.4,N
1500786915.2,286047004.6,N
1500786935.0,286047004.6,N
1500786936.0,286047004.6,N
1500786955.8,286047008.6,N
1500786975.6,286047009.9,N
1500786995.5,286047008.9,N
1500787015.3,286047006.5,N
1500787035.1,286047008.6,N
1500787055.9,286047006.3,N
1500787075.7,286047007.8,N
1500787095.6,286047009.9,N
1500787115.4,286047010.1,N
1500787135.2,286047010.4,N
1500787155.1,286047008.2,N
1500787156.0,286047008.2,N
1500787175.8,286047006.7,N
1500787195.7,286047010.2,N
1500787215.5,286047007.7,N
1500787235.3,286047009.5,N
1500787255.2,286047012.0,N
1500787275.0,286047010.2,N
1500787275.9,286047010.2,N
1500787295.7,286047010.7,N
1500787315.6,286047008.7,N
1500787335.4,286047008.6,N
1500787355.3,286047008.0,N
1500787375.1,286047010.4,N
1500787395.8,286047008.6,N
1500787415.7,286047006.8,N
1500787435.5,286047007.5,N
1500787455.4,286047006.5,N
1500787475.2,286047008.2,N
1500787495.0,286047008.7,N
1500787495.9,286047008.7,N
1500787515.8,286047009.2,N
1500787535.6,286047011.6,N
1500787555.4,286047012.0,N
1500787575.3,286047007.7,N
1500787595.1,286047008.1,N
1500787615.9,286047008.4,N
1500787635.7,286047012.4,N
1500787655.5,286047012.4,N
1500787675.4,286047012.2,N
1500787695.2,286047008.1,N
1500787715.1,286047008.3,N
1500787716.0,286047008.3,N
1500787735.8,286047009.0,N
1500787755.6,286047008.9,N
1500787775.5,286047008.4,N
1500787795.3,286047010.4,N
1500787815.1,286047009.6,N
1500787835.9,286047011.6,N
1500787855.7,286047012.4,N
1500787875.6,286047010.3,N
1500787895.4,286047007.8,N
1500787915.2,286047010.7,N
1500787935.1,286047008.5,N
1500787936.0,286047008.5,N
1500787955.8,286047008.4,N
1500787975.7,286047006.6,N
1500787995.5,286047008.2,N
1500788015.3,286047010.6,N
1500788035.2,286047007.7,N
1500788055.0,286047006.2,N
1500788055.9,286047006.2,N
1500788075.8,286047007.7,N
1500788095.6,286047007.7,N
1500788115.4,286047009.5,N
1500788135.3,286047010.0,N
1500788155.1,286047011.9,N
1500788175.8,286047008.2,N
1500788195.7,286047006.4,N
1500788215.5,286047008.8,N
1500788235.4,286047008.8,N
1500788255.2,286047008.1,N
1500788275.0,286047006.6,N
1500788275.9,286047006.6,N
1500788295.8,286047007.4,N
1500788315.6,286047006.5,N
1500788335.5,286047007.1,N
1500788355.3,286047006.3,N
1500788375.1,286047011.9,N
1500788395.9,286047004.9,N
1500788415.7,286047004.7,N
1500788435.5,286047005.7,N
1500788455.4,286047007.5,N
1500788475.2,286047007.3,N
1500788495.1,286047007.0,N
1500788496.0,286047007.0,N
1500788515.8,286047006.4,N
1500788535.6,286047009.0,N
1500788555.5,286047005.5,N
1500788575.3,286047003.0,N
1500788595.2,286047003.5,N
1500788615.9,286047005.3,N
1500788635.7,286047007.2,N
1500788655.6,286047006.9,N
1500788675.4,286047006.6,N
1500788695.2,286047009.2,N
1500788715.1,286047006.5,N
1500788716.0,286047006.5,N
1500788735.8,286047008.8,N
1500788755.7,286047007.0,N
1500788775.5,286047006.8,N
1500788795.3,286047006.1,N
1500788815.2,286047008.5,N
1500788835.0,286047006.6,N
1500788835.9,286047006.6,N
1500788855.8,286047006.1,N
1500788875.6,286047006.8,N
1500788895.4,286047006.8,N
1500788915.3,286047005.5,N
1500788935.1,286047007.4,N
1500788955.8,286047006.4,N
1500788975.7,286047008.7,N
1500788995.5,286047009.1,N
1500789015.4,286047007.0,N
1500789035.2,286047006.8,N
1500789055.0,286047006.7,N
1500789055.9,286047006.7,N
1500789075.8,286047007.0,N
1500789095.6,286047006.7,N
1500789115.5,286047006.7,N
1500789135.3,286047009.2,N
1500789155.1,286047008.1,N
1500789175.9,286047008.2,N
1500789195.7,286047007.9,N
1500789215.5,286047006.2,N
1500789235.4,286047008.4,N
1500789255.2,286047010.2,N
1500789275.1,286047010.7,N
1500789276.0,286047010.7,N
1500789295.8,286047007.3,N
1500789315.6,286047006.5,N
1500789335.5,286047008.0,N
1500789355.3,286047008.3,N
1500789375.2,286047009.1,N
1500789395.9,286047006.4,N
1500789415.7,286047006.1,N
1500789435.6,286047007.4,N
1500789455.4,286047005.0,N
1500789475.2,286047005.3,N
1500789495.1,286047004.5,N
1500789496.0,286047004.5,N
1500789515.8,286047006.9,N
1500789535.7,286047006.7,N
1500789555.5,286047007.4,N
1500789575.3,286047007.6,N
1500789595.2,286047004.9,N
